Regional Weather Roundup
Issued by NWS

Home | Current Version | Previous Version | Text Only | Print | Product List | Glossary On
Versions: 1 2 3 4 5 6 7 8 9 10 11 12 13 14 15 16 17 18 19 20 21 22 23 24 25 26 27 28 29 30 31 32 33 34 35 36 37 38 39 40 41 42 43 44 45 46 47 48 49 50
000
ASUS46 KLOX 230512
RWRCA

SOUTHERN CALIFORNIA WEATHER ROUNDUP
NATIONAL WEATHER SERVICE OXNARD CALIFORNIA
900 PM PST SAT NOV 22 2014

NOTE: "FAIR" INDICATES FEW OR NO CLOUDS BELOW 12,000 FEET WITH NO
SIGNIFICANT WEATHER AND/OR OBSTRUCTIONS TO VISIBILITY.

  -  STATIONS PRECEEDED BY AN ASTERISK (*) ARE NOT NWS OR FAA
     STATIONS AND ARE NOT SUBJECT TO NWS AND FAA QUALITY CONTROL.

CAZ041-042-087-230600-
LA AND ORANGE COUNTY COASTAL AREAS


CITY           SKY/WX    TMP DP  RH WIND       PRES   REMARKS
L.A. DOWNTOWN  CLEAR     61  53  75 CALM      30.03R
L.A. AIRPORT   PTCLDY    63  53  70 SE6       30.04R
LONG BEACH     CLEAR     60  57  89 CALM      30.05R

CITY           SKY/WX    TMP DP  RH WIND       PRES   REMARKS
AVALON           N/A     59 N/A N/A S3          N/A
FULLERTON      CLEAR     59  56  89 CALM      30.04R
*GETTY CENTER    N/A     55  54  94 NE1         N/A
HAWTHORNE      CLEAR     64  54  69 E5        30.04R
*LOS ALAMITOS  FAIR      58  57  96 CALM      30.05R
*REDONDO BEACH   N/A     56  52  86 CALM      30.04R
SANTA ANA      PTCLDY    64  56  75 CALM      30.05R
STA MONICA APT CLEAR     61  53  75 NE3       30.04R
*UCLA            N/A     59  52  77 N3        30.01S

$$

CAZ547-548-048-230600-
LA COUNTY VALLEYS AND INLAND EMPIRE


CITY           SKY/WX    TMP DP  RH WIND       PRES   REMARKS
BURBANK        CLEAR     60  49  66 CALM      30.04R
VAN NUYS       CLEAR     60  53  77 E3        30.04R

CITY           SKY/WX    TMP DP  RH WIND       PRES   REMARKS
CORONA AIRPORT CLEAR     51  46  83 CALM      30.05R
*CHATSWORTH      N/A     58  47  68 CALM      30.03R
CHINO          CLEAR     57  53  86 W3        30.06R
*CLAREMONT       N/A     52  49  89 NE2         N/A
MARCH AFB      CLEAR     52  45  78 CALM      30.05R
*NORTHRIDGE      N/A     59  48  67 NE1         N/A
ONTARIO        MOCLDY    58  53  84 W3        30.04R
POMONA         PTCLDY    59  54  82 CALM      30.08
RIVERSIDE      CLEAR     59  52  77 CALM      30.05R
SAN BERNARDINO MOCLDY    55  45  67 CALM      30.05R
*WHITEMAN AP   NOT AVBL
*WOODLAND HILL   N/A     54  48  82 S2          N/A

$$

CAZ054-055-230600-
LA AND SAN BERNARDINO COUNTY MOUNTAINS


CITY           SKY/WX    TMP DP  RH WIND       PRES   REMARKS
*ACTON           N/A     57  48  71 S6          N/A
*BIG BEAR AIRP CLEAR     50  16  25 W10G18    30.16S
*BIG PINES       N/A     45  29  53 W2          N/A
MT WILSON NWS    N/A     45  37  76 MISG        N/A
SANDBERG       FOG       46  42  86 N21G29    30.12S VSB 1/4
*WARM SPRINGS    N/A     51  46  84 W10G28      N/A

$$

CAZ028-029-059-060-099-230600-
ANTELOPE VALLEY AND SURROUNDING AREAS


CITY           SKY/WX    TMP DP  RH WIND       PRES   REMARKS
LANCASTER      PTCLDY    53  45  74 W21       30.08R
PALMDALE       PTCLDY    58  47  66 W18G26    30.08R

CITY           SKY/WX    TMP DP  RH WIND       PRES   REMARKS
29 PALMS       CLOUDY    66  43  43 N15       30.00R
BARSTOW/DAGGET PTCLDY    64  45  49 W30G40    29.93R
BISHOP         PTCLDY    53  18  25 N24G31    30.04R
CHINA LAKE     PTCLDY    63  30  28 SW13      29.91S
EDWARDS AFB    PTCLDY    60  48  62 W18       30.02R
MOJAVE         MOCLDY    55  48  76 SW16G23   30.07R
NEEDLES        CLEAR     63  28  26 CALM      29.89R
VICTORVILLE    PTCLDY    55  46  71 W16       30.04S

$$

CAZ039-040-230600-
VENTURA AND SANTA BARBARA COUNTY COAST


CITY           SKY/WX    TMP DP  RH WIND       PRES   REMARKS
CAMARILLO      CLEAR     60  49  66 NE8       30.01R
NWS OXNARD       N/A     57  52  82 CALM      30.00S
OXNARD AIRPORT CLEAR     60  51  72 NE7       30.01R
*POINT MUGU    PTCLDY    58  56  93 N5        30.02R
SBA APT/GOLETA CLEAR     62  54  74 NW3       30.01R
*SANTA BARBARA   N/A     65  55  69 E5        30.08R
*VENTURA         N/A     58  51  78 NE3       30.05S

$$

CAZ044-045-230600-
VENTURA COUNTY VALLEYS


CITY           SKY/WX    TMP DP  RH WIND       PRES   REMARKS
*SIMI VALLEY     N/A     55  46  69 CALM      30.00S
*OJAI            N/A     50  44  79 CALM      29.99R
*FILLMORE        N/A     54  46  76 CALM      29.93S

$$

CAZ053-230600-
VENTURA COUNTY MOUNTAINS


CITY           SKY/WX    TMP DP  RH WIND       PRES   REMARKS
*LOCKWOOD VLY    N/A     46  37  71 MISG        N/A

$$

CAZ034-035-036-230600-
CENTRAL COAST AND SANTA YNEZ VALLEY


CITY           SKY/WX    TMP DP  RH WIND       PRES   REMARKS
SAN LUIS OBISP CLEAR     61  53  75 NW17      30.11R
SANTA MARIA    CLEAR     60  57  89 NW8       30.10R

CITY           SKY/WX    TMP DP  RH WIND       PRES   REMARKS
*CAL POLY SLO    N/A     63  55  77 N9          N/A
*LOMPOC        CLEAR     61  55  82 W8        30.10R
*PISMO BEACH     N/A     62  56  79 NE3       30.12R
*SANTA YNEZ    FAIR      59  54  82 NW8       30.06R

$$

CAZ037-038-051-230600-
SAN LUIS OBISPO COUNTY INTERIOR AND CUYAMA VALLEY


CITY           SKY/WX    TMP DP  RH WIND       PRES   REMARKS
*CUYAMA          N/A     59  49  70 N3        30.12R
PASO ROBLES    CLEAR     56  53  90 NW16      30.14R

$$

CAZ032-033-061-230600-
SOUTHERN DESERTS


CITY           SKY/WX    TMP DP  RH WIND       PRES   REMARKS
BLYTHE         CLEAR     61  38  42 S8        29.90F
IMPERIAL       CLEAR     66  38  35 SE5       29.88F
PALM SPRINGS   CLEAR     62  40  44 CALM      29.91S
THERMAL        CLEAR     54  40  59 N3        29.87S

$$

ELSEWHERE ACROSS THE WESTERN UNITED STATES AND MEXICO


CITY           SKY/WX    TMP DP  RH WIND       PRES   REMARKS
DENVER, CO     MOCLDY    48  25  40 NW13      29.55F
GRAND CANYON,  PTCLDY    38  18  44 SW13      29.99S WCI  30
HONOLULU, HI   PTCLDY    79  66  65 NE7       30.01R
KAHULUI, MAUI  CLEAR     77  66  69 SE3       30.01R
LAKE TAHOE, CA CLEAR     31  25  78 CALM      30.20S
LAS VEGAS, NV  CLEAR     58  30  34 S10       29.86R
MAMMOTH LAKES, FAIR      37  16  41 N13       30.16R WCI  29
MEXICO CITY, M CLEAR     61  50  67 S3        30.29S
PHOENIX, AZ    CLEAR     58  34  40 E8        29.94R
PORTLAND, OR   MOCLDY    47  44  90 SE6       30.18R
RENO, NV       MOCLDY    41  28  60 N7        30.21R
SALT LAKE CITY CLOUDY    37  35  92 CALM      29.91R
SAN DIEGO, CA  MOCLDY    64  57  78 SE5       30.06R
SAN FRANCISCO, PTCLDY    57  52  83 W10       30.22R
SAN JOSE, CA   PTCLDY    53  50  89 W7        30.21R
SEATTLE, WA    MOCLDY    46  41  82 S7        30.08R
TIJUANA, MEX   CLEAR     59  54  82 CALM      30.08R

$$

STATION/POSITION TIME  TEMP    WIND        PRES    VSBY  WAVE
                       AIR SEA DIR/SP/G                  HT/PER
                 (UTC) (F)     (DEG/KT/KT) (MB)    (MI)  (FT/S)
POINT ARGUELLO B NOT AVBL
WEST SANTA BARBA 0500   62 62  330/ 23/ 27 1017.5R         7/13
POINT CONCEPTION NOT AVBL
EAST SANTA BARBA 0500   65     300/ 17       N/A
SANTA MONICA BAY 0500   65 65  320/ 16/ 17 1016.7R         6/ 7


USA.gov is the U.S. government's official web portal to all federal, state and local government web resources and services.